CAPE
13 0 0 0 0 0 2 1 11 26 39 0 17 2 2 0 0 0 0 0 15 51 59 70 49 73 98 7 0 10 0 18 0 0 0 0 0 0 0 0 0 0 0 0
18 2 0 0 0 0 8 0 0 45 2 1 0 0 0 0 0 0 0 0 5 56 112 82 114 70 1 27 23 4 0 0 0 0 0 0 0 0 0 0 4 0 0 0
27 9 0 0 0 0 10 9 9 31 32 0 0 1 0 0 0 0 0 0 34 46 49 95 66 74 29 1 0 0 0 0 0 0 0 0 0 0 0 0 0 0 2 0
36 23 8 0 0 0 28 17 0 0 0 2 4 5 2 1 3 0 0 0 0 22 1 25 72 79 31 4 0 0 2 1 1 0 0 0 0 0 0 0 0 0 0 0
34 54 39 19 5 5 10 0 1 0 2 0 1 2 0 1 0 0 0 0 17 34 34 25 17 53 18 38 1 0 0 1 0 0 0 0 0 0 0 0 0 1 0 0
28 52 61 47 29 12 10 0 4 18 0 16 8 0 0 0 11 6 0 0 1 36 21 39 2 8 17 27 11 1 0 0 0 0 0 0 0 0 0 0 0 0 1 0
33 46 66 65 47 4 0 0 27 26 0 0 0 1 7 5 8 1 19 4 12 7 0 0 0 0 0 2 2 0 0 0 0 0 0 0 0 0 0 0 0 0 3 0
34 40 62 70 52 14 0 28 1 23 3 1 11 0 0 25 5 23 3 9 1 0 0 0 2 0 0 0 0 0 0 0 0 0 1 0 0 0 0 0 0 0 0 0
38 38 53 51 47 45 2 5 9 20 11 0 5 25 34 1 1 0 0 0 0 0 0 0 0 1 0 0 0 0 0 0 1 0 0 0 0 0 0 0 0 0 0 0
51 53 48 49 45 39 47 7 2 6 1 0 6 11 0 8 3 2 0 0 0 0 0 0 0 1 0 0 0 0 0 2 0 0 0 0 0 0 0 0 0 0 0 0
56 58 52 55 53 36 43 9 12 0 4 0 0 0 1 19 16 0 1 0 0 0 1 0 0 0 0 0 0 0 0 0 0 1 0 0 0 0 0 0 0 0 0 0
66 61 58 44 34 36 62 12 0 0 11 0 1 1 2 2 0 0 0 0 0 0 0 0 0 0 0 0 0 0 0 0 0 0 0 0 0 0 0 0 0 0 0 0
58 63 60 58 40 36 26 0 0 0 0 0 0 0 0 0 0 2 0 0 0 0 0 0 0 0 0 0 0 0 0 1 0 0 0 0 0 0 0 0 0 0 0 0
57 71 60 56 37 33 34 0 0 0 0 0 0 2 0 0 0 0 0 0 0 0 0 0 0 0 0 1 0 0 0 0 0 0 0 0 0 0 0 0 0 0 0 0
60 64 53 52 56 52 42 4 0 0 0 0 0 1 0 0 1 0 0 0 0 0 0 0 0 1 0 0 0 0 0 0 0 0 0 0 0 0 0 0 0 0 0 0
31 33 34 14 24 28 33 24 0 0 0 0 0 0 0 0 0 1 1 1 1 2 0 1 0 0 0 0 0 0 0 0 0 0 0 0 0 0 0 0 0 0 0 0
16 12 15 15 23 33 19 11 0 0 0 0 1 1 0 0 1 0 0 1 2 1 0 0 0 0 0 0 0 0 0 0 0 0 0 0 0 0 0 0 0 0 0 2
19 19 6 28 40 36 30 0 1 0 0 0 1 1 0 0 0 0 1 0 0 0 0 0 0 0 0 0 0 0 0 0 0 0 0 0 0 0 0 0 0 0 0 0
41 38 29 4 0 0 1 1 0 0 0 0 1 0 0 0 0 0 0 0 1 0 0 0 0 0 0 0 0 0 0 0 0 0 0 0 0 0 0 0 2 0 0 0
1 0 0 0 0 2 0 0 1 0 0 1 2 0 0 0 0 0 0 0 0 0 0 0 0 0 0 0 0 0 0 0 0 0 0 0 1 0 0 0 0 0 0 0
0 0 0 1 2 0 0 0 0 0 1 0 1 0 0 0 0 0 0 0 0 1 0 0 0 0 0 0 0 0 0 0 0 0 0 0 0 0 0 0 0 0 0 0
0 0 1 0 0 0 1 1 1 2 0 2 0 2 0 0 0 0 5 0 0 0 0 0 0 0 0 0 0 0 0 0 0 0 0 0 0 0 0 0 0 0 0 0
0 0 0 1 0 1 0 0 2 1 0 0 2 0 0 0 2 0 0 0 0 0 0 0 0 0 0 0 0 0 0 0 0 0 0 0 0 0 0 0 0 0 0 0
0 1 0 0 0 0 0 0 0 0 0 0 0 0 0 0 0 0 0 0 0 0 0 0 0 0 0 0 0 0 0 0 0 0 0 0 0 0 0 0 0 0 0 0
0 0 0 0 0 0 0 0 0 0 0 0 0 0 0 0 0 0 0 0 0 0 0 0 0 0 0 0 0 0 0 0 0 0 0 0 0 0 0 0 0 0 0 0
0 0 0 0 0 0 0 0 0 0 0 0 0 0 0 0 0 0 0 0 0 0 0 0 0 0 0 0 0 0 0 0 0 0 0 0 0 0 0 0 0 0 0 0
0 0 0 0 0 0 0 0 0 0 0 0 0 0 0 0 0 0 0 0 0 0 0 0 0 0 0 0 0 0 0 0 0 0 0 0 0 0 0 0 0 0 0 0
CIN
-1 -0 -0 -0 -0 -0 -0 -0 -0 -15 -10 -0 -0 -0 -0 -0 -0 -0 -0 -0 -87 -41 -2 -21 -4 -12 -19 -13 -0 -80 -0 -115 -19 -0 -0 -0 -0 -0 -0 -2 -0 -0 -0 -0
-8 -2 -0 -0 -0 -0 -1 -0 -0 -23 -3 -0 -0 -0 -0 -0 -0 -0 -0 -0 -2 -19 -12 -6 -14 -52 -102 -99 -48 -48 -8 -0 -0 -0 -0 -0 -0 -0 -0 -0 -16 -0 -0 -0
-1 -13 -0 -0 -0 -0 -1 -1 -2 -4 -1 -0 -0 -0 -0 -0 -0 -0 -0 -0 -16 -13 -13 -15 -17 -37 -129 -148 -24 -0 -13 -0 -0 -0 -0 -0 -0 -0 -0 -0 -0 -0 -0 -0
-0 -1 -5 -0 -0 -0 -3 -3 -0 -1 -2 -0 -0 -0 -1 -0 -0 -0 -0 -0 -0 -15 -0 -8 -16 -22 -88 -127 -0 -0 -65 -7 -26 -0 -0 -0 -0 -0 -0 -0 -0 -0 -0 -0
-0 -0 -0 -0 -25 -40 -1 -0 -0 -5 -3 -7 -0 -2 -0 -0 -0 -0 -0 -0 -53 -12 -11 -38 -1 -25 -23 -14 -26 -0 -0 -5 -0 -0 -0 -0 -0 -0 -0 -0 -0 -0 -0 -0
-2 -0 -0 -0 -6 -19 -0 -0 -23 -4 -0 -2 -3 -1 -0 -1 -2 -2 -0 -0 -20 -18 -15 -36 -25 -57 -91 -55 -40 -17 -0 -0 -0 -0 -0 -0 -0 -0 -0 -0 -0 -0 -0 -0
-2 -1 -0 -0 -0 -10 -0 -0 -2 -1 -0 -4 -0 -1 -1 -2 -0 -0 -5 -11 -6 -9 -0 -0 -0 -0 -0 -41 -33 -0 -0 -0 -0 -0 -0 -0 -0 -0 -0 -0 -0 -2 -1 -0
-2 -1 -1 -1 -0 -26 -0 -5 -0 -3 -1 -0 -6 -0 -0 -2 -0 -6 -11 -12 -3 -0 -6 -0 -1 -0 -0 -0 -0 -0 -0 -0 -0 -1 -0 -0 -0 -0 -0 -0 -0 -0 -0 -0
-1 -3 -3 -1 -1 -13 -3 -8 -18 -10 -8 -0 -5 -8 -0 -0 -0 -3 -0 -0 -0 -0 -0 -3 -0 -2 -0 -2 -0 -0 -0 -0 -0 -0 -0 -0 -0 -0 -0 -0 -0 -0 -0 -0
-0 -1 -2 -2 -2 -13 -1 -2 -7 -8 -0 -0 -4 -8 -2 -1 -2 -4 -0 -0 -0 -0 -2 -1 -0 -1 -0 -2 -0 -0 -0 -0 -0 -0 -0 -0 -0 -0 -0 -0 -0 -0 -0 -0
-0 -0 -2 -2 -3 -9 -1 -2 -10 -0 -0 -0 -0 -0 -9 -4 -2 -0 -0 -0 -0 -0 -0 -0 -0 -0 -0 -0 -0 -0 -0 -0 -0 -0 -0 -0 -0 -0 -0 -0 -0 -0 -0 -0
-0 -0 -1 -3 -6 -9 -5 -2 -1 -0 -2 -0 -0 -0 -0 -0 -0 -0 -0 -0 -0 -0 -0 -0 -0 -0 -0 -0 -1 -0 -0 -0 -0 -0 -0 -0 -0 -0 -0 -0 -0 -0 -0 -0
-0 -0 -1 -3 -8 -13 -7 -0 -0 -0 -0 -0 -0 -0 -0 -0 -0 -0 -0 -0 -0 -0 -0 -0 -0 -0 -0 -0 -0 -0 -0 -0 -0 -0 -0 -0 -0 -0 -0 -0 -0 -0 -0 -0
-0 -0 -2 -3 -7 -11 -6 -7 -0 -0 -0 -0 -0 -0 -0 -0 -0 -0 -0 -0 -0 -0 -0 -0 -0 -0 -0 -0 -0 -0 -0 -0 -0 -0 -0 -0 -0 -0 -0 -0 -0 -0 -0 -0
-0 -0 -2 -1 -2 -22 -9 -18 -0 -0 -0 -0 -0 -0 -0 -0 -0 -0 -0 -0 -0 -0 -0 -0 -0 -0 -0 -0 -0 -0 -0 -0 -0 -0 -0 -0 -0 -0 -0 -0 -0 -0 -0 -0
-17 -0 -1 -3 -3 -7 -1 -3 -0 -0 -0 -0 -0 -0 -0 -0 -0 -0 -0 -0 -0 -0 -0 -0 -0 -0 -0 -0 -0 -0 -0 -0 -0 -0 -0 -0 -0 -0 -0 -0 -0 -0 -0 -0
-2 -3 -3 -3 -2 -7 -0 -9 -0 -0 -0 -0 -0 -0 -0 -0 -0 -0 -0 -0 -0 -0 -0 -0 -0 -0 -0 -0 -0 -0 -0 -0 -0 -0 -0 -0 -0 -0 -0 -0 -0 -0 -0 -0
-1 -2 -10 -12 -13 -5 -2 -0 -0 -0 -0 -0 -0 -0 -0 -0 -0 -0 -0 -0 -0 -0 -0 -0 -0 -0 -0 -0 -0 -0 -0 -0 -0 -0 -0 -0 -0 -0 -0 -0 -0 -0 -0 -0
-10 -17 -5 -2 -0 -0 -0 -0 -0 -0 -0 -0 -0 -0 -0 -0 -0 -0 -0 -0 -0 -0 -0 -0 -0 -0 -0 -0 -0 -0 -0 -0 -0 -0 -0 -0 -0 -0 -0 -0 -0 -0 -0 -0
-0 -0 -0 -0 -0 -0 -0 -0 -0 -0 -0 -0 -0 -0 -0 -0 -0 -0 -0 -0 -0 -0 -0 -0 -0 -0 -0 -0 -0 -0 -0 -0 -0 -0 -0 -0 -0 -0 -0 -0 -0 -0 -0 -0
-0 -0 -0 -0 -0 -0 -0 -0 -0 -0 -0 -0 -0 -0 -0 -0 -0 -0 -0 -0 -0 -0 -0 -0 -0 -0 -0 -0 -0 -0 -0 -0 -0 -0 -0 -0 -0 -0 -0 -0 -0 -0 -0 -0
-0 -0 -0 -0 -0 -0 -0 -0 -0 -0 -0 -0 -0 -0 -0 -0 -0 -0 -0 -0 -0 -0 -0 -0 -0 -0 -0 -0 -0 -0 -0 -0 -0 -0 -0 -0 -0 -0 -0 -0 -0 -0 -0 -0
-0 -0 -0 -0 -0 -0 -0 -0 -0 -0 -0 -0 -0 -0 -0 -0 -0 -0 -0 -0 -0 -0 -0 -0 -0 -0 -0 -0 -0 -0 -0 -0 -0 -0 -0 -0 -0 -0 -0 -0 -0 -0 -0 -0
-0 -0 -0 -0 -0 -0 -0 -0 -0 -0 -0 -0 -0 -0 -0 -0 -0 -0 -0 -0 -0 -0 -0 -0 -0 -0 -0 -0 -0 -0 -0 -0 -0 -0 -0 -0 -0 -0 -0 -0 -0 -0 -0 -0
-0 -0 -0 -0 -0 -0 -0 -0 -0 -0 -0 -0 -0 -0 -0 -0 -0 -0 -0 -0 -0 -0 -0 -0 -0 -0 -0 -0 -0 -0 -0 -0 -0 -0 -0 -0 -0 -0 -0 -0 -0 -0 -0 -0
-0 -0 -0 -0 -3 -0 -0 -0 -0 -0 -0 -0 -0 -0 -0 -0 -0 -0 -0 -0 -0 -0 -0 -0 -0 -0 -0 -0 -0 -0 -0 -0 -0 -0 -0 -0 -0 -0 -0 -0 -0 -0 -0 -0
-0 -0 -0 -0 -0 -0 -0 -0 -0 -0 -0 -0 -0 -0 -0 -0 -0 -0 -0 -0 -0 -0 -0 -0 -0 -0 -0 -0 -0 -0 -0 -0 -0 -0 -0 -0 -0 -0 -0 -0 -0 -0 -0 -0
Wind_Speed
37 35 33 29 25 20 19 25 35 13 16 23 28 34 30 27 31 34 33 30 29 30 25 28 19 22 23 23 16 22 21 24 31 28 24 27 26 30 32 38 38 33 36 39
38 35 33 30 26 22 20 27 26 18 22 33 35 34 34 33 33 33 28 34 29 26 28 29 24 18 23 21 19 20 20 27 36 35 29 24 30 35 36 40 38 42 37 33
40 38 35 33 29 27 24 25 30 27 31 35 34 33 39 44 38 43 39 35 34 31 34 25 25 24 24 25 23 22 21 27 30 41 38 40 48 46 44 40 44 46 36 41
42 39 37 35 32 30 29 29 34 26 32 38 34 30 32 36 38 35 34 36 37 29 37 30 29 21 24 24 24 24 24 33 33 36 39 44 49 50 49 45 41 36 37 39
42 41 38 36 34 31 35 35 30 34 28 27 31 30 36 34 33 32 36 45 38 32 33 32 28 27 30 32 27 27 27 37 35 45 41 47 51 48 48 45 37 34 32 36
42 41 39 36 36 35 36 38 33 29 35 32 32 36 36 39 39 41 43 46 50 44 36 29 23 22 27 28 30 26 28 31 39 52 45 51 49 50 43 34 27 28 31 33
43 42 39 38 38 40 33 36 31 33 40 35 40 36 40 42 40 43 38 36 39 37 22 21 24 29 31 29 29 24 28 32 36 47 47 49 46 30 30 30 30 27 29 31
43 42 41 40 40 41 40 32 36 33 41 35 39 41 39 39 36 38 37 35 33 23 28 33 37 36 36 33 31 28 24 30 37 40 44 48 49 37 30 28 28 30 29 29
42 42 40 41 40 40 41 39 29 32 32 39 34 35 37 37 38 39 40 30 27 27 29 27 32 34 30 30 30 26 25 26 31 34 41 44 33 25 25 28 35 30 26 29
40 40 40 40 39 39 39 37 35 36 35 29 30 38 35 32 32 34 33 31 30 28 29 32 33 34 28 33 35 34 30 31 32 34 35 37 26 24 27 34 33 25 29 31
38 39 39 38 38 37 37 37 31 37 40 36 29 36 35 31 32 24 26 27 34 31 30 28 28 31 32 37 33 32 34 36 34 30 31 36 21 25 28 24 25 28 29 31
37 37 38 37 37 36 35 36 30 29 36 30 27 28 25 30 28 31 27 36 29 22 23 23 25 31 27 30 39 28 34 25 29 22 24 23 22 22 22 23 27 28 30 33
37 36 36 36 35 34 35 32 29 29 35 38 36 33 31 29 27 26 33 34 26 23 22 22 25 29 23 29 33 30 28 19 24 23 21 21 24 26 27 28 29 31 33 36
35 35 34 34 34 33 32 32 31 30 29 37 33 26 29 31 29 29 27 23 20 18 20 24 20 27 20 25 29 27 21 17 21 23 22 24 23 25 28 31 35 37 36 36
35 34 34 33 32 30 28 27 31 31 34 34 36 29 27 26 25 24 19 19 21 21 24 23 24 21 19 22 22 24 18 20 17 22 20 18 23 28 31 33 33 34 36 37
30 30 30 31 32 30 27 31 33 31 28 33 35 28 26 22 21 19 18 16 19 21 22 21 22 15 16 20 21 15 14 17 13 15 19 21 25 28 30 31 34 35 37 38
32 32 33 33 30 28 32 30 30 33 28 33 37 33 27 22 21 22 21 20 20 19 19 19 18 15 14 18 18 11 13 14 16 18 20 24 27 27 31 33 35 36 37 38
31 30 28 26 24 25 36 25 22 29 31 29 43 38 31 24 22 22 20 19 18 19 15 11 10 7 11 15 8 7 10 13 17 19 21 22 24 29 33 35 37 38 39 41
27 25 23 22 28 30 33 21 20 26 33 41 40 42 41 25 24 21 21 18 18 12 12 12 4 7 11 7 3 8 11 14 15 18 22 26 29 30 32 34 36 39 40 39
25 25 28 31 33 20 16 25 31 32 36 35 38 33 32 25 24 21 16 15 11 15 11 7 12 8 7 7 8 10 12 15 16 19 24 26 28 30 33 35 34 36 36 37
29 30 27 23 24 27 28 32 40 36 41 41 37 35 21 22 22 16 14 10 10 13 11 6 6 5 3 6 8 11 13 16 18 19 21 24 27 30 31 31 32 34 33 36
32 22 26 29 29 27 32 37 35 36 41 35 32 25 23 18 15 15 12 15 11 9 2 5 7 4 2 5 8 10 13 15 17 20 22 25 26 27 28 29 31 30 31 33
24 22 27 30 29 34 40 47 42 39 37 33 25 19 21 19 17 16 13 9 6 6 5 7 10 3 6 8 9 11 13 15 17 20 22 22 23 25 26 28 28 27 31 32
24 26 31 37 38 38 38 42 42 35 17 20 17 16 17 16 16 12 10 7 4 5 5 5 3 9 11 10 10 12 13 16 18 18 19 20 22 25 27 29 28 28 33 32
23 27 34 35 30 30 28 23 23 17 18 18 11 15 16 18 14 13 8 3 3 4 3 5 12 12 11 10 10 12 14 16 16 17 18 19 23 26 28 29 28 30 32 32
22 23 26 25 26 24 23 21 18 22 18 9 7 17 20 17 5 4 4 3 5 7 7 13 15 13 11 10 12 13 14 15 16 18 19 21 25 27 27 27 29 31 31 33
22 23 25 26 23 20 18 18 19 14 14 14 19 14 15 4 5 5 6 7 7 12 14 15 14 13 12 12 13 13 14 15 16 18 20 22 24 25 26 29 29 30 30 31
Wind_Direction
246 244 243 245 244 243 244 252 254 250 205 245 253 253 256 262 272 265 272 278 282 288 289 285 287 288 288 297 292 293 301 307 299 304 314 319 322 321 327 318 308 299 300 300
244 242 238 237 235 227 241 249 251 239 223 248 251 257 256 261 266 262 274 271 275 286 287 286 292 277 289 298 300 298 298 300 300 306 312 316 313 318 319 318 310 298 294 298
240 239 236 231 229 226 237 248 245 251 242 256 245 251 257 260 267 261 264 273 274 277 276 283 291 289 291 296 296 301 303 297 297 296 302 306 302 306 311 312 306 302 286 297
238 236 233 229 226 224 234 244 247 245 243 234 250 250 264 261 262 259 260 265 266 269 277 279 277 284 291 295 297 300 300 296 298 300 302 302 301 304 308 306 303 293 293 293
234 233 230 225 221 220 233 238 246 240 256 244 243 252 255 257 259 262 259 258 265 269 272 281 277 284 286 288 297 297 300 296 302 299 303 302 302 306 307 306 301 294 289 293
231 228 225 221 216 215 236 238 248 248 246 250 248 243 250 260 265 265 264 265 263 266 269 270 286 293 294 293 292 294 296 299 302 296 304 305 306 310 309 309 306 306 300 302
228 226 223 218 214 215 238 237 242 244 248 245 247 255 261 262 263 265 268 262 265 261 273 284 292 298 292 290 290 291 293 299 300 299 307 302 312 324 322 319 317 316 312 323
225 223 221 218 216 217 231 237 233 246 247 252 257 257 259 267 261 262 260 267 270 257 269 275 284 286 286 284 289 289 291 297 298 300 302 304 305 313 318 317 316 323 321 323
222 220 218 218 217 219 227 234 236 241 253 250 256 262 261 261 258 259 262 268 266 265 269 271 277 281 287 286 289 297 299 299 295 303 304 305 316 324 330 327 312 324 329 329
218 217 216 216 216 217 223 235 233 238 252 261 258 257 267 268 264 257 256 251 259 264 259 271 277 280 283 281 283 288 293 297 294 297 299 304 316 322 326 315 319 330 330 329
215 214 213 213 214 216 219 230 233 235 245 260 270 264 258 266 260 251 255 257 256 259 263 269 277 282 279 281 285 287 290 295 299 304 303 304 325 324 319 328 330 327 328 329
213 212 212 212 213 214 216 229 234 236 241 252 268 270 272 262 270 267 248 258 258 263 266 273 284 282 289 288 284 295 289 294 303 305 312 322 326 326 330 328 326 327 326 327
212 210 209 209 210 211 214 227 226 233 241 250 260 265 270 269 267 270 259 255 261 265 278 283 288 284 289 286 288 293 300 299 307 312 316 318 324 327 331 333 331 333 332 330
205 205 205 205 207 208 212 226 226 230 241 241 254 269 267 268 273 264 267 260 268 269 285 283 289 286 298 296 297 298 304 309 308 310 318 322 325 334 336 334 332 331 333 333
202 204 202 199 199 201 212 226 228 230 233 240 251 263 272 273 270 262 269 258 259 269 278 286 289 295 305 306 307 303 306 309 304 315 331 330 333 334 335 335 338 342 340 339
191 190 192 195 198 197 210 228 232 226 229 237 248 257 259 270 262 272 268 265 269 278 282 288 294 306 306 304 307 320 340 337 329 333 342 339 337 340 348 347 345 347 347 345
196 195 195 197 192 199 215 230 229 215 224 231 239 244 249 260 268 267 271 276 278 282 288 293 295 301 304 305 307 324 336 349 347 345 341 339 348 345 350 349 347 347 346 347
178 181 186 187 187 216 222 238 210 204 220 232 226 231 236 248 261 265 271 274 282 289 299 307 308 312 312 310 328 351 350 350 349 352 358 359 356 350 347 347 346 345 344 343
177 177 175 194 211 215 214 211 213 221 225 217 223 224 229 241 257 260 264 282 287 306 298 301 320 318 317 332 24 0 350 349 353 2 358 352 350 350 351 351 350 348 347 348
156 181 199 206 207 178 183 215 213 220 222 223 224 225 232 239 249 266 278 290 291 293 290 310 306 324 3 27 22 11 7 5 1 353 349 353 354 355 354 354 355 354 354 353
189 194 201 189 182 199 210 207 205 211 210 217 222 225 229 248 252 262 279 298 298 290 296 297 316 317 12 19 19 21 21 14 10 13 12 8 2 358 359 0 1 359 2 359
190 185 187 191 199 209 204 201 205 209 210 217 221 219 232 244 260 272 280 281 292 315 27 322 326 332 94 58 50 36 24 18 20 18 11 9 11 9 7 7 4 6 7 6
176 192 199 199 202 199 196 196 201 206 208 213 202 201 230 239 255 269 281 297 317 68 347 331 330 77 88 82 62 43 36 33 23 18 19 19 17 14 14 11 11 14 10 9
200 199 194 197 195 197 199 199 201 205 202 158 170 210 236 242 252 280 292 318 353 331 335 334 65 108 101 86 68 47 31 24 20 27 25 24 23 18 16 14 15 15 8 9
199 194 194 201 212 214 211 208 205 188 159 148 189 230 240 236 257 267 306 4 10 341 342 38 120 107 93 76 54 42 33 29 33 34 31 30 23 19 16 15 19 15 12 10
202 204 205 208 203 201 199 190 163 145 148 160 244 226 226 242 280 314 340 76 21 354 50 103 108 99 87 64 54 48 44 46 41 34 32 27 22 19 17 19 17 15 14 13
207 206 202 200 196 196 185 161 155 149 188 210 215 237 244 280 330 332 329 345 26 89 93 97 100 97 82 73 59 56 56 48 40 36 33 28 24 22 21 16 19 17 19 18